EN

Hourly Weather Kyzyl-Yar

Today, 1 August, Sunday

Time Temperature Precipitation Wind Pressure Humidity
00:00 +20°C° 0.1 mm 2 mps 747 mmHg 86%
01:00 +19°C° 0.1 mm 2 mps 747 mmHg 87%
02:00 +19°C° 0.1 mm 2 mps 747 mmHg 89%
03:00 +19°C° 0.1 mm 2 mps 747 mmHg 91%
04:00 +18°C° 0.1 mm 2 mps 748 mmHg 93%
05:00 +19°C° 0 mm 2 mps 748 mmHg 90%
06:00 +21°C° 0 mm 2 mps 748 mmHg 86%
07:00 +23°C° 0 mm 2 mps 749 mmHg 82%
08:00 +25°C° 0.1 mm 3 mps 749 mmHg 73%
09:00 +27°C° 0.1 mm 3 mps 749 mmHg 65%
10:00 +29°C° 0.1 mm 4 mps 749 mmHg 57%
11:00 +30°C° 0.1 mm 4 mps 749 mmHg 50%
12:00 +32°C° 0.1 mm 4 mps 749 mmHg 43%
13:00 +33°C° 0.1 mm 4 mps 749 mmHg 35%
14:00 +33°C° 0 mm 4 mps 748 mmHg 31%
15:00 +34°C° 0 mm 4 mps 748 mmHg 28%
16:00 +35°C° 0 mm 4 mps 748 mmHg 24%
17:00 +33°C° 0 mm 3 mps 748 mmHg 30%
18:00 +30°C° 0 mm 3 mps 748 mmHg 37%
19:00 +28°C° 0 mm 2 mps 748 mmHg 43%
20:00 +27°C° 0 mm 2 mps 749 mmHg 47%
21:00 +25°C° 0 mm 1 mps 749 mmHg 51%
22:00 +24°C° 0 mm 1 mps 749 mmHg 55%
23:00 +23°C° 0 mm 1 mps 749 mmHg 58%

Tomorrow, 2 August, Monday

Time Temperature Precipitation Wind Pressure Humidity
00:00 +22°C° 0 mm 1 mps 750 mmHg 60%
01:00 +19°C° 0 mm 0 mps 750 mmHg 63%
02:00 +19°C° 0 mm 0 mps 750 mmHg 66%
03:00 +18°C° 0 mm 0 mps 750 mmHg 69%
04:00 +17°C° 0 mm 0 mps 750 mmHg 72%
05:00 +19°C° 0 mm 0 mps 751 mmHg 67%
06:00 +20°C° 0 mm 0 mps 751 mmHg 63%
07:00 +21°C° 0 mm 0 mps 751 mmHg 59%
08:00 +25°C° 0 mm 1 mps 752 mmHg 52%
09:00 +27°C° 0 mm 1 mps 752 mmHg 46%
10:00 +29°C° 0 mm 2 mps 752 mmHg 39%
11:00 +30°C° 0 mm 2 mps 752 mmHg 36%
12:00 +31°C° 0 mm 2 mps 751 mmHg 32%
13:00 +32°C° 0 mm 2 mps 751 mmHg 29%
14:00 +34°C° 0 mm 2 mps 751 mmHg 28%
15:00 +34°C° 0 mm 2 mps 751 mmHg 26%
16:00 +34°C° 0 mm 2 mps 750 mmHg 25%
17:00 +32°C° 0 mm 2 mps 750 mmHg 32%
18:00 +30°C° 0 mm 2 mps 750 mmHg 39%
19:00 +28°C° 0 mm 2 mps 750 mmHg 46%
20:00 +27°C° 0 mm 2 mps 751 mmHg 49%
21:00 +25°C° 0 mm 2 mps 751 mmHg 53%
22:00 +23°C° 0 mm 2 mps 751 mmHg 57%
23:00 +21°C° 0 mm 2 mps 751 mmHg 58%

Day after tomorrow, 3 August, Tuesday

Time Temperature Precipitation Wind Pressure Humidity
00:00 +22°C° 0 mm 1 mps 751 mmHg 59%
01:00 +21°C° 0 mm 1 mps 751 mmHg 61%
02:00 +20°C° 0 mm 2 mps 751 mmHg 62%
03:00 +19°C° 0 mm 2 mps 751 mmHg 63%
04:00 +19°C° 0 mm 2 mps 751 mmHg 65%
05:00 +20°C° 0 mm 2 mps 751 mmHg 60%
06:00 +23°C° 0 mm 2 mps 751 mmHg 56%
07:00 +24°C° 0 mm 1 mps 752 mmHg 52%
08:00 +27°C° 0 mm 2 mps 752 mmHg 44%
09:00 +30°C° 0 mm 2 mps 751 mmHg 36%
10:00 +34°C° 0 mm 3 mps 751 mmHg 29%
11:00 +35°C° 0 mm 2 mps 751 mmHg 26%
12:00 +37°C° 0 mm 2 mps 750 mmHg 24%
13:00 +38°C° 0 mm 2 mps 750 mmHg 21%
14:00 +38°C° 0 mm 2 mps 750 mmHg 21%
15:00 +39°C° 0 mm 2 mps 749 mmHg 20%
16:00 +39°C° 0 mm 2 mps 749 mmHg 20%
17:00 +36°C° 0 mm 2 mps 749 mmHg 26%
18:00 +34°C° 0 mm 2 mps 749 mmHg 33%
19:00 +31°C° 0 mm 2 mps 749 mmHg 40%
20:00 +30°C° 0 mm 2 mps 749 mmHg 42%
21:00 +28°C° 0 mm 2 mps 749 mmHg 44%
22:00 +27°C° 0 mm 3 mps 749 mmHg 46%
23:00 +26°C° 0 mm 2 mps 749 mmHg 47%

4 August, Wednesday

Time Temperature Precipitation Wind Pressure Humidity
00:00 +26°C° 0 mm 2 mps 749 mmHg 49%
01:00 +25°C° 0 mm 2 mps 749 mmHg 50%
02:00 +24°C° 0 mm 2 mps 749 mmHg 51%
03:00 +24°C° 0 mm 2 mps 749 mmHg 53%
04:00 +23°C° 0 mm 2 mps 749 mmHg 54%
05:00 +24°C° 0 mm 2 mps 749 mmHg 54%
06:00 +25°C° 0 mm 2 mps 749 mmHg 53%
07:00 +26°C° 0 mm 2 mps 749 mmHg 53%
08:00 +29°C° 0.1 mm 2 mps 749 mmHg 45%
09:00 +31°C° 0.1 mm 2 mps 749 mmHg 37%
10:00 +35°C° 0.1 mm 2 mps 749 mmHg 29%
11:00 +37°C° 0 mm 2 mps 749 mmHg 26%
12:00 +39°C° 0 mm 2 mps 749 mmHg 22%
13:00 +40°C° 0 mm 3 mps 748 mmHg 18%
14:00 +37°C° 0.1 mm 3 mps 748 mmHg 25%
15:00 +34°C° 0.1 mm 4 mps 748 mmHg 32%
16:00 +29°C° 0.1 mm 4 mps 748 mmHg 40%
17:00 +29°C° 0 mm 4 mps 748 mmHg 41%
18:00 +29°C° 0 mm 3 mps 747 mmHg 42%
19:00 +29°C° 0 mm 3 mps 747 mmHg 44%
20:00 +28°C° 0 mm 3 mps 747 mmHg 46%
21:00 +27°C° 0 mm 3 mps 748 mmHg 49%
22:00 +26°C° 0 mm 3 mps 748 mmHg 52%
23:00 +26°C° 0 mm 3 mps 748 mmHg 50%

5 August, Thursday

Time Temperature Precipitation Wind Pressure Humidity
00:00 +26°C° 0 mm 2 mps 748 mmHg 49%
01:00 +27°C° 0 mm 2 mps 748 mmHg 48%
02:00 +25°C° 0 mm 2 mps 749 mmHg 52%
03:00 +24°C° 0 mm 1 mps 749 mmHg 56%
04:00 +23°C° 0 mm 1 mps 749 mmHg 61%
05:00 +24°C° 0.1 mm 1 mps 749 mmHg 62%
06:00 +24°C° 0.1 mm 1 mps 749 mmHg 63%
07:00 +25°C° 0.1 mm 1 mps 749 mmHg 64%
08:00 +27°C° 0 mm 2 mps 749 mmHg 56%
09:00 +29°C° 0 mm 2 mps 749 mmHg 49%
10:00 +31°C° 0 mm 2 mps 749 mmHg 42%
11:00 +33°C° 0 mm 3 mps 748 mmHg 40%
12:00 +33°C° 0 mm 4 mps 748 mmHg 38%
13:00 +34°C° 0 mm 5 mps 748 mmHg 37%
14:00 +32°C° 0.8 mm 4 mps 748 mmHg 46%
15:00 +29°C° 0.8 mm 4 mps 748 mmHg 56%
16:00 +27°C° 0.8 mm 3 mps 748 mmHg 66%
17:00 +25°C° 0.3 mm 3 mps 748 mmHg 71%
18:00 +24°C° 0.3 mm 3 mps 748 mmHg 77%
19:00 +22°C° 0.3 mm 3 mps 748 mmHg 82%
20:00 +21°C° 0.4 mm 3 mps 748 mmHg 85%
21:00 +20°C° 0.4 mm 3 mps 748 mmHg 89%
22:00 +19°C° 0.4 mm 3 mps 748 mmHg 92%
23:00 +19°C° 0.1 mm 2 mps 748 mmHg 92%

6 August, Friday

Time Temperature Precipitation Wind Pressure Humidity
00:00 +19°C° 0.1 mm 2 mps 748 mmHg 92%
01:00 +20°C° 0.1 mm 1 mps 747 mmHg 93%
02:00 +20°C° 1 mm 1 mps 748 mmHg 94%
03:00 +20°C° 1 mm 1 mps 748 mmHg 95%
04:00 +19°C° 1 mm 1 mps 748 mmHg 96%
05:00 +20°C° 0.6 mm 1 mps 748 mmHg 94%
06:00 +19°C° 0.6 mm 2 mps 748 mmHg 93%
07:00 +19°C° 0.6 mm 2 mps 748 mmHg 92%
08:00 +20°C° 0.6 mm 3 mps 749 mmHg 86%
09:00 +21°C° 0.6 mm 3 mps 749 mmHg 80%
10:00 +22°C° 0.6 mm 3 mps 749 mmHg 74%
11:00 +25°C° 0.1 mm 4 mps 749 mmHg 64%
12:00 +26°C° 0.1 mm 4 mps 750 mmHg 53%
13:00 +27°C° 0.1 mm 4 mps 750 mmHg 43%
14:00 +28°C° 0 mm 5 mps 750 mmHg 40%
15:00 +28°C° 0 mm 5 mps 750 mmHg 36%
16:00 +29°C° 0 mm 5 mps 750 mmHg 33%
17:00 +27°C° 0 mm 4 mps 750 mmHg 38%
18:00 +26°C° 0 mm 4 mps 750 mmHg 43%
19:00 +25°C° 0 mm 3 mps 750 mmHg 47%
20:00 +22°C° 0 mm 3 mps 750 mmHg 53%
21:00 +20°C° 0 mm 2 mps 751 mmHg 59%
22:00 +18°C° 0 mm 2 mps 751 mmHg 64%
23:00 +17°C° 0 mm 2 mps 752 mmHg 68%
Show more